Weather History for Aiken, SC

Change the Weather History Date:

Thursday, February 28, 2013

  Actual Average Record
Temperature  
Mean Temperature 45 °F -  
Max Temperature 53 °F 64 °F 78 °F (2011)
Min Temperature 37 °F 37 °F 28 °F (2014)
Degree Days  
Heating Degree Days 20    
Moisture  
Dew Point 34 °F    
Average Humidity 66    
Maximum Humidity 87    
Minimum Humidity 44    
Precipitation  
Precipitation 0.00 in - - ()
Sea Level Pressure  
Sea Level Pressure 29.89 in    
Wind  
Wind Speed 11 mph (West)    
Max Wind Speed 22 mph    
Max Gust Speed 29 mph    
Visibility 10 miles    
Events      
Averages and records for this station are not official NWS values.
T = Trace of Precipitation, MM = Missing Value Source: NWS Daily Summary

Daily Weather History Graph

Daily Weather History Graph

Search for Another Location

Airport:

Trip Planner

Search our weather history database for the weather conditions in past years. The results will help you decide how hot, cold, wet, or windy it might be!

Date:

Astronomy

Feb. 28, 2013 Rise Set
Actual Time 6:56 AM EST 6:22 PM EST
Civil Twilight 6:31 AM EST 6:47 PM EST
Nautical Twilight 6:02 AM EST 7:16 PM EST
Astronomical Twilight 5:33 AM EST 7:45 PM EST
Moon 9:35 PM EST (2/28) 8:16 AM EST (2/28)
Length of Visible Light 12h 16m
Length of Day
11h 26m
Waning Gibbous, 91% of the Moon is Illuminated
Feb 28
Waning Gibbous
Mar 4
Last Quarter
Mar 11
New
Mar 19
First Quarter
Mar 27
Full

Hourly Weather History & Observations

Time (EST) Temp. Windchill Dew Point Humidity Pressure Visibility Wind Dir Wind Speed Gust Speed Precip Events Conditions
12:35 AM 46.4 °F 41.9 °F 41.0 °F 81% 29.85 in 10.0 mi SW 9.2 mph - N/A   Clear
1:15 AM 46.4 °F 41.9 °F 41.0 °F 81% 29.85 in 10.0 mi SW 9.2 mph - N/A   Clear
1:55 AM 44.6 °F 39.2 °F 41.0 °F 87% 29.84 in 10.0 mi SW 10.4 mph - N/A   Clear
2:15 AM 44.6 °F 39.7 °F 41.0 °F 87% 29.83 in 10.0 mi SW 9.2 mph - N/A   Clear
2:35 AM 44.6 °F 39.7 °F 41.0 °F 87% 29.83 in 10.0 mi SW 9.2 mph - N/A   Clear
2:55 AM 44.6 °F 39.7 °F 39.2 °F 81% 29.83 in 10.0 mi SW 9.2 mph - N/A   Clear
3:35 AM 44.6 °F 40.7 °F 39.2 °F 81% 29.83 in 10.0 mi SW 6.9 mph - N/A   Clear
3:55 AM 41.0 °F 35.8 °F 37.4 °F 87% 29.83 in 10.0 mi SW 8.1 mph - N/A   Clear
4:15 AM 41.0 °F 35.8 °F 37.4 °F 87% 29.83 in 10.0 mi WSW 8.1 mph - N/A   Clear
4:35 AM 42.8 °F 38.6 °F 37.4 °F 81% 29.83 in 10.0 mi West 6.9 mph - N/A   Clear
4:55 AM 42.8 °F 38.0 °F 37.4 °F 81% 29.83 in 10.0 mi West 8.1 mph - N/A   Clear
5:15 AM 42.8 °F 37.5 °F 37.4 °F 81% 29.83 in 10.0 mi WSW 9.2 mph - N/A   Clear
5:35 AM 41.0 °F 34.7 °F 37.4 °F 87% 29.84 in 10.0 mi WSW 10.4 mph - N/A   Clear
5:55 AM 42.8 °F 38.0 °F 37.4 °F 81% 29.85 in 10.0 mi West 8.1 mph - N/A   Clear
6:15 AM 41.0 °F 35.8 °F 35.6 °F 81% 29.85 in 10.0 mi WSW 8.1 mph - N/A   Clear
6:35 AM 41.0 °F 35.2 °F 35.6 °F 81% 29.86 in 10.0 mi West 9.2 mph - N/A   Clear
7:15 AM 41.0 °F 35.2 °F 35.6 °F 81% 29.87 in 10.0 mi WSW 9.2 mph - N/A   Clear
7:35 AM 41.0 °F 35.8 °F 35.6 °F 81% 29.87 in 10.0 mi WSW 8.1 mph - N/A   Clear
7:55 AM 41.0 °F 34.3 °F 35.6 °F 81% 29.88 in 10.0 mi West 11.5 mph - N/A   Clear
8:15 AM 42.8 °F 36.2 °F 35.6 °F 76% 29.90 in 10.0 mi West 12.7 mph 18.4 mph N/A   Clear
8:35 AM 44.6 °F 38.1 °F 35.6 °F 71% 29.90 in 10.0 mi West 13.8 mph 20.7 mph N/A   Clear
8:55 AM 44.6 °F 38.4 °F 35.6 °F 71% 29.90 in 10.0 mi West 12.7 mph 19.6 mph N/A   Clear
9:15 AM 46.4 °F 39.8 °F 33.8 °F 62% 29.90 in 10.0 mi West 16.1 mph 21.9 mph N/A   Clear
9:35 AM 46.4 °F 40.7 °F 33.8 °F 62% 29.90 in 10.0 mi West 12.7 mph 23.0 mph N/A   Clear
10:15 AM 50.0 °F - 32.0 °F 50% 29.90 in 10.0 mi West 15.0 mph 24.2 mph N/A   Scattered Clouds
10:35 AM 48.2 °F - 32.0 °F 54% 29.90 in 10.0 mi West 21.9 mph 25.3 mph N/A   Scattered Clouds
10:55 AM 50.0 °F - 32.0 °F 50% 29.90 in 10.0 mi West 16.1 mph 24.2 mph N/A   Scattered Clouds
11:15 AM 51.8 °F - 32.0 °F 47% 29.90 in 10.0 mi West 17.3 mph 23.0 mph N/A   Scattered Clouds
11:35 AM 50.0 °F - 32.0 °F 50% 29.90 in 10.0 mi West 13.8 mph 25.3 mph N/A   Mostly Cloudy
11:55 AM 51.8 °F - 33.8 °F 50% 29.89 in 10.0 mi West 17.3 mph 23.0 mph N/A   Mostly Cloudy
12:15 PM 51.8 °F - 33.8 °F 50% 29.90 in 10.0 mi West 12.7 mph 24.2 mph N/A   Overcast
12:35 PM 51.8 °F - 33.8 °F 50% 29.88 in 10.0 mi WSW 18.4 mph 21.9 mph N/A   Overcast
12:55 PM 51.8 °F - 33.8 °F 50% 29.88 in 10.0 mi NW 12.7 mph 21.9 mph N/A   Overcast
1:15 PM 51.8 °F - 33.8 °F 50% 29.87 in 10.0 mi WNW 15.0 mph 21.9 mph N/A   Mostly Cloudy
1:35 PM 51.8 °F - 33.8 °F 50% 29.86 in 10.0 mi West 15.0 mph 28.8 mph N/A   Mostly Cloudy
1:55 PM 51.8 °F - 33.8 °F 50% 29.86 in 10.0 mi WNW 13.8 mph 24.2 mph N/A   Scattered Clouds
2:15 PM 53.6 °F - 33.8 °F 47% 29.86 in 10.0 mi WNW 16.1 mph 25.3 mph N/A   Scattered Clouds
2:35 PM 53.6 °F - 33.8 °F 47% 29.86 in 10.0 mi WNW 17.3 mph 21.9 mph N/A   Mostly Cloudy
3:15 PM 53.6 °F - 33.8 °F 47% 29.86 in 10.0 mi WNW 16.1 mph 25.3 mph N/A   Mostly Cloudy
3:35 PM 53.6 °F - 33.8 °F 47% 29.86 in 10.0 mi WNW 16.1 mph 25.3 mph N/A   Scattered Clouds
4:15 PM 51.8 °F - 33.8 °F 50% 29.87 in 10.0 mi WNW 13.8 mph 23.0 mph N/A   Mostly Cloudy
4:35 PM 53.6 °F - 32.0 °F 44% 29.87 in 10.0 mi West 16.1 mph 26.5 mph N/A   Scattered Clouds
5:15 PM 50.0 °F - 32.0 °F 50% 29.88 in 10.0 mi WNW 17.3 mph 23.0 mph N/A   Mostly Cloudy
5:35 PM 50.0 °F - 32.0 °F 50% 29.89 in 10.0 mi WNW 15.0 mph 18.4 mph N/A   Mostly Cloudy
5:55 PM 50.0 °F - 32.0 °F 50% 29.90 in 10.0 mi West 13.8 mph 19.6 mph N/A   Scattered Clouds
6:15 PM 48.2 °F - 32.0 °F 54% 29.91 in 10.0 mi WNW 12.7 mph 17.3 mph N/A   Scattered Clouds
6:35 PM 46.4 °F 41.5 °F 32.0 °F 57% 29.91 in 10.0 mi WNW 10.4 mph 18.4 mph N/A   Mostly Cloudy
6:55 PM 46.4 °F 40.7 °F 32.0 °F 57% 29.92 in 10.0 mi West 12.7 mph - N/A   Mostly Cloudy
7:15 PM 44.6 °F 39.7 °F 32.0 °F 61% 29.92 in 10.0 mi WNW 9.2 mph - N/A   Clear
7:35 PM 44.6 °F 39.2 °F 32.0 °F 61% 29.93 in 10.0 mi WNW 10.4 mph - N/A   Scattered Clouds
7:55 PM 44.6 °F 39.7 °F 32.0 °F 61% 29.93 in 10.0 mi WNW 9.2 mph - N/A   Scattered Clouds
8:15 PM 44.6 °F 41.4 °F 32.0 °F 61% 29.93 in 10.0 mi WNW 5.8 mph - N/A   Clear
8:35 PM 42.8 °F 39.3 °F 32.0 °F 66% 29.94 in 10.0 mi WNW 5.8 mph - N/A   Clear
8:55 PM 41.0 °F 34.7 °F 32.0 °F 70% 29.94 in 10.0 mi NW 10.4 mph - N/A   Clear
9:15 PM 41.0 °F 36.4 °F 32.0 °F 70% 29.95 in 10.0 mi NW 6.9 mph - N/A   Clear
9:35 PM 41.0 °F 36.4 °F 32.0 °F 70% 29.95 in 10.0 mi NW 6.9 mph - N/A   Clear
9:55 PM 39.2 °F 33.6 °F 32.0 °F 75% 29.95 in 10.0 mi WNW 8.1 mph - N/A   Clear
10:15 PM 39.2 °F 33.6 °F 32.0 °F 75% 29.96 in 10.0 mi WNW 8.1 mph - N/A   Clear
10:35 PM 39.2 °F 32.0 °F 32.0 °F 75% 29.95 in 10.0 mi WNW 11.5 mph 16.1 mph N/A   Clear
10:55 PM 37.4 °F 32.1 °F 30.2 °F 75% 29.95 in 10.0 mi WNW 6.9 mph - N/A   Clear
11:15 PM 37.4 °F 31.4 °F 30.2 °F 75% 29.96 in 10.0 mi West 8.1 mph - N/A   Clear
11:35 PM 37.4 °F 32.8 °F 30.2 °F 75% 29.95 in 10.0 mi West 5.8 mph - N/A   Clear
11:55 PM 37.4 °F 32.1 °F 30.2 °F 75% 29.95 in 10.0 mi West 6.9 mph - N/A   Clear